This demonstration page uses our WeatherBlox Daily Observations layout. Learn more.

Left ArrowRight Arrow

Hourly Observations for September 28, 2022

Temp ( °F °C ) Dew Point ( °F °C ) Humidity (%) Winds ( mph kmh ) Pressure ( in mb ) Visibility ( mi km ) Precip ( " mm )
12:53 am 00:53 Clear 69 20.6 39 3.9 33 33 SE 10 17 30.10 1019 10 16 0.00 0.00
1:53 am 01:53 Clear 63 17.2 40 4.4 43 43 SE 9 15 30.11 1020 10 16 0.00 0.00
2:53 am 02:53 Clear 60 15.6 40 4.4 47 47 SE 9 15 30.11 1020 10 16 0.00 0.00
3:53 am 03:53 Clear 60 15.6 40 4.4 47 47 ESE 5 7 30.11 1020 10 16 0.00 0.00
4:53 am 04:53 Clear 57 13.9 41 5 55 55 N 6 9 30.12 1020 10 16 0.00 0.00
5:53 am 05:53 Clear 54 12.2 41 5 61 61 N 6 9 30.13 1020 10 16 0.00 0.00
6:53 am 06:53 Clear 53 11.7 41 5 63 63 NNE 6 9 30.15 1021 10 16 0.00 0.00
7:53 am 07:53 Sunny 52 11.1 41 5 66 66 NNE 6 9 30.17 1022 10 16 0.00 0.00
8:53 am 08:53 Sunny 60 15.6 42 5.6 51 51 Calm 30.19 1022 10 16 0.00 0.00
9:53 am 09:53 Sunny 69 20.6 44 6.7 40 40 SE 3 6 30.20 1023 10 16 0.00 0.00
10:53 am 10:53 undefined 76 24.4 37 2.8 24 24 S 10 17 30.20 1023 10 16 0.00 0.00
11:53 am 11:53 Sunny 79 26.1 33 0.6 19 19 S 13 20 30.21 1023 10 16 0.00 0.00
12:53 pm 12:53 Sunny 81 27.2 32 0 17 17 S 10 17 30.19 1022 10 16 0.00 0.00
1:53 pm 13:53 Sunny 83 28.3 33 0.6 17 17 SSE 12 19 30.18 1022 10 16 0.00 0.00
2:53 pm 14:53 Sunny 85 29.4 35 1.7 17 17 SSE 9 15 30.15 1021 10 16 0.00 0.00
3:53 pm 15:53 Sunny 87 30.6 36 2.2 16 16 SE 17 28 30.12 1020 10 16 0.00 0.00
4:53 pm 16:53 Sunny 86 30 36 2.2 17 17 SSE 13 20 30.11 1020 10 16 0.00 0.00
5:53 pm 17:53 Sunny 85 29.4 36 2.2 17 17 S 16 26 30.11 1020 10 16 0.00 0.00
6:53 pm 18:53 Sunny 83 28.3 37 2.8 19 19 SE 14 22 30.12 1020 10 16 0.00 0.00
7:53 pm 19:53 Clear 79 26.1 38 3.3 23 23 SSE 9 15 30.14 1021 10 16 0.00 0.00
8:53 pm 20:53 Clear 74 23.3 39 3.9 28 28 SSE 9 15 30.15 1021 10 16 0.00 0.00
9:53 pm 21:53 Clear 73 22.8 39 3.9 29 29 S 9 15 30.16 1021 10 16 0.00 0.00
10:53 pm 22:53 Clear 68 20 40 4.4 36 36 S 8 13 30.16 1022 10 16 0.00 0.00
11:53 pm 23:53 Clear 67 19.4 40 4.4 37 37 S 6 9 30.17 1022 10 16 0.00 0.00

Powered by AerisWeather